^^
Saratoga-Weather Station Historical Data
Daily Summary for March 8, 2020 Units:  Metric    English   Both
Daily Weekly Monthly Yearly Custom
  High: Low: Average:
Temperature: 27.1 °C 8.7 °C 17.3 °C
Dew Point: 11.8 °C 6.8 °C 9.1 °C
Humidity: 90% 32% 63%
Wind Speed: 11.3km/h 0km/h 1.6km/h
Wind Gust: 16.1km/h - -
Wind- - SSW
Pressure: 1026.8 hPa 1023.7 hPa -
Precipitation: 0.0 mm    
Historical Graphs
 
 
Tabular Data for March 8, 2020
Time Temperature Dew Point Pressure Wind Wind Speed Wind Gust Humidity Rainfall Rate (Hourly) solar
00:02 12.9 °C 7.6 °C 1024.4 hPa Calm     70% 0.0 mm 0 W/m2
00:07 12.8 °C 7.5 °C 1024.4 hPa Calm   1.6 km/h 70% 0.0 mm 0 W/m2
00:12 12.7 °C 7.4 °C 1024.4 hPa Calm     70% 0.0 mm 0 W/m2
00:17 12.6 °C 7.5 °C 1024.4 hPa Calm     71% 0.0 mm 0 W/m2
00:22 12.4 °C 7.3 °C 1024.7 hPa Calm   1.6 km/h 71% 0.0 mm 0 W/m2
00:27 12.3 °C 7.4 °C 1024.7 hPa Calm     72% 0.0 mm 0 W/m2
00:32 12.3 °C 7.4 °C 1024.7 hPa Calm     72% 0.0 mm 0 W/m2
00:37 12.2 °C 7.5 °C 1024.7 hPa Calm   1.6 km/h 73% 0.0 mm 0 W/m2
00:42 12.1 °C 7.4 °C 1024.7 hPa Calm     73% 0.0 mm 0 W/m2
00:47 12 °C 7.5 °C 1024.7 hPa Calm     74% 0.0 mm 0 W/m2
00:52 11.9 °C 7.4 °C 1024.7 hPa Calm     74% 0.0 mm 0 W/m2
00:57 11.8 °C 7.3 °C 1024.7 hPa Calm     74% 0.0 mm 0 W/m2
01:02 11.7 °C 7.2 °C 1024.7 hPa Calm     74% 0.0 mm 0 W/m2
01:07 11.6 °C 7.3 °C 1024.7 hPa Calm     75% 0.0 mm 0 W/m2
01:12 11.5 °C 7.2 °C 1024.7 hPa Calm     75% 0.0 mm 0 W/m2
01:17 11.4 °C 7.3 °C 1024.7 hPa Calm     76% 0.0 mm 0 W/m2
01:22 11.3 °C 7.2 °C 1025.1 hPa Calm     76% 0.0 mm 0 W/m2
01:27 11.3 °C 7.4 °C 1025.1 hPa Calm     77% 0.0 mm 0 W/m2
01:32 11.3 °C 7.4 °C 1025.1 hPa Calm     77% 0.0 mm 0 W/m2
01:37 11.3 °C 7.4 °C 1025.1 hPa Calm     77% 0.0 mm 0 W/m2
01:42 11.2 °C 7.3 °C 1025.1 hPa Calm     77% 0.0 mm 0 W/m2
01:47 11.2 °C 7.5 °C 1025.1 hPa Calm     78% 0.0 mm 0 W/m2
01:52 11.1 °C 7.4 °C 1024.7 hPa Calm     78% 0.0 mm 0 W/m2
01:57 10.9 °C 7.2 °C 1025.1 hPa Calm     78% 0.0 mm 0 W/m2
02:02 10.9 °C 7.2 °C 1025.1 hPa Calm     78% 0.0 mm 0 W/m2
02:07 10.8 °C 7.3 °C 1025.1 hPa West 3.2 km/h 3.2 km/h 79% 0.0 mm 0 W/m2
02:12 10.9 °C 7.4 °C 1025.1 hPa Calm   1.6 km/h 79% 0.0 mm 0 W/m2
02:17 10.9 °C 7.4 °C 1025.1 hPa Calm     79% 0.0 mm 0 W/m2
02:22 10.9 °C 7.2 °C 1025.1 hPa Calm   1.6 km/h 78% 0.0 mm 0 W/m2
02:27 10.8 °C 7.3 °C 1025.1 hPa Calm     79% 0.0 mm 0 W/m2
02:32 10.7 °C 7.2 °C 1025.1 hPa Calm   1.6 km/h 79% 0.0 mm 0 W/m2
02:37 10.7 °C 7.2 °C 1025.1 hPa Calm     79% 0.0 mm 0 W/m2
02:42 10.7 °C 7.2 °C 1025.1 hPa Calm   1.6 km/h 79% 0.0 mm 0 W/m2
02:47 10.6 °C 7.3 °C 1025.1 hPa Calm     80% 0.0 mm 0 W/m2
02:52 10.5 °C 7.2 °C 1025.1 hPa Calm     80% 0.0 mm 0 W/m2
02:57 10.4 °C 7.1 °C 1025.1 hPa Calm     80% 0.0 mm 0 W/m2
03:02 10.4 °C 7.1 °C 1025.1 hPa Calm     80% 0.0 mm 0 W/m2
03:07 10.3 °C 7.2 °C 1025.1 hPa Calm     81% 0.0 mm 0 W/m2
03:12 10.2 °C 7.1 °C 1025.1 hPa Calm     81% 0.0 mm 0 W/m2
03:17 10.2 °C 7.1 °C 1025.1 hPa Calm     81% 0.0 mm 0 W/m2
03:22 10.2 °C 7.1 °C 1025.1 hPa Calm     81% 0.0 mm 0 W/m2
03:27 10.2 °C 7.3 °C 1025.1 hPa Calm     82% 0.0 mm 0 W/m2
03:32 10.2 °C 7.3 °C 1025.1 hPa Calm     82% 0.0 mm 0 W/m2
03:37 10.2 °C 7.3 °C 1025.1 hPa West 1.4 km/h 3.2 km/h 82% 0.0 mm 0 W/m2
03:42 10.4 °C 7.5 °C 1025.1 hPa Calm     82% 0.0 mm 0 W/m2
03:47 10.5 °C 7.4 °C 1025.1 hPa Calm     81% 0.0 mm 0 W/m2
03:52 10.5 °C 7.4 °C 1025.1 hPa Calm     81% 0.0 mm 0 W/m2
03:57 10.4 °C 7.3 °C 1025.1 hPa Calm     81% 0.0 mm 0 W/m2
04:02 10.3 °C 7.2 °C 1025.1 hPa Calm     81% 0.0 mm 0 W/m2
04:07 10.2 °C 7.1 °C 1025.1 hPa Calm     81% 0.0 mm 0 W/m2
04:12 10.1 °C 7.2 °C 1025.1 hPa Calm     82% 0.0 mm 0 W/m2
04:17 9.9 °C 7 °C 1025.1 hPa Calm     82% 0.0 mm 0 W/m2
04:22 9.8 °C 7.1 °C 1025.1 hPa Calm     83% 0.0 mm 0 W/m2
04:27 9.8 °C 7.1 °C 1025.1 hPa Calm     83% 0.0 mm 0 W/m2
04:32 9.7 °C 7.1 °C 1025.1 hPa Calm     84% 0.0 mm 0 W/m2
04:37 9.6 °C 7 °C 1025.1 hPa Calm     84% 0.0 mm 0 W/m2
04:42 9.5 °C 6.9 °C 1025.1 hPa Calm     84% 0.0 mm 0 W/m2
04:47 9.4 °C 7 °C 1025.1 hPa Calm     85% 0.0 mm 0 W/m2
04:52 9.4 °C 7 °C 1025.1 hPa Calm     85% 0.0 mm 0 W/m2
04:57 9.3 °C 6.9 °C 1025.1 hPa Calm     85% 0.0 mm 0 W/m2
05:02 9.3 °C 6.9 °C 1025.1 hPa Calm     85% 0.0 mm 0 W/m2
05:07 9.2 °C 7 °C 1025.1 hPa Calm     86% 0.0 mm 0 W/m2
05:12 9.2 °C 7 °C 1025.1 hPa Calm     86% 0.0 mm 0 W/m2
05:17 9.1 °C 6.9 °C 1025.1 hPa Calm     86% 0.0 mm 0 W/m2
05:22 9.1 °C 6.9 °C 1025.1 hPa Calm     86% 0.0 mm 0 W/m2
05:27 9 °C 6.8 °C 1025.1 hPa Calm     86% 0.0 mm 0 W/m2
05:32 9 °C 6.8 °C 1025.1 hPa Calm     86% 0.0 mm 0 W/m2
05:37 8.9 °C 6.9 °C 1025.1 hPa Calm     87% 0.0 mm 0 W/m2
05:42 8.9 °C 7 °C 1025.1 hPa Calm     88% 0.0 mm 0 W/m2
05:47 8.9 °C 7 °C 1025.1 hPa Calm     88% 0.0 mm 0 W/m2
05:52 8.8 °C 6.9 °C 1025.1 hPa Calm     88% 0.0 mm 0 W/m2
05:57 8.8 °C 6.9 °C 1025.1 hPa Calm     88% 0.0 mm 0 W/m2
06:02 8.8 °C 6.9 °C 1025.4 hPa Calm     88% 0.0 mm 0 W/m2
06:07 8.7 °C 7 °C 1025.4 hPa Calm     89% 0.0 mm 0 W/m2
06:12 8.7 °C 7 °C 1025.4 hPa Calm     89% 0.0 mm 0 W/m2
06:17 8.7 °C 7 °C 1025.4 hPa Calm     89% 0.0 mm 0 W/m2
06:22 8.7 °C 7 °C 1025.4 hPa Calm     89% 0.0 mm 0 W/m2
06:27 8.8 °C 7.1 °C 1025.7 hPa Calm     89% 0.0 mm 0 W/m2
06:32 8.8 °C 7.1 °C 1025.7 hPa Calm     89% 0.0 mm 0 W/m2
06:42 8.8 °C 7.1 °C 1025.7 hPa Calm     89% 0.0 mm 0 W/m2
06:47 8.8 °C 7.1 °C 1025.7 hPa Calm     89% 0.0 mm 0 W/m2
06:52 8.8 °C 7.1 °C 1025.7 hPa Calm     89% 0.0 mm 0 W/m2
06:57 8.8 °C 7.1 °C 1025.7 hPa Calm     89% 0.0 mm 0 W/m2
07:02 8.8 °C 7.1 °C 1025.7 hPa Calm     89% 0.0 mm 0 W/m2
07:07 8.8 °C 7.1 °C 1025.7 hPa Calm     89% 0.0 mm 5 W/m2
07:12 8.7 °C 7 °C 1025.7 hPa Calm     89% 0.0 mm 7 W/m2
07:17 8.7 °C 7.2 °C 1025.7 hPa Calm     90% 0.0 mm 7 W/m2
07:22 8.8 °C 7.2 °C 1025.7 hPa Calm     90% 0.0 mm 9 W/m2
07:27 8.8 °C 7.2 °C 1025.7 hPa Calm     90% 0.0 mm 11 W/m2
07:32 8.8 °C 7.2 °C 1025.7 hPa Calm     90% 0.0 mm 12 W/m2
07:37 8.8 °C 7.2 °C 1025.7 hPa Calm     90% 0.0 mm 14 W/m2
07:42 8.8 °C 7.2 °C 1026.1 hPa Calm     90% 0.0 mm 14 W/m2
07:47 8.8 °C 7.2 °C 1026.1 hPa Calm     90% 0.0 mm 16 W/m2
07:52 8.9 °C 7.3 °C 1025.7 hPa Calm     90% 0.0 mm 16 W/m2
07:57 9.1 °C 7.5 °C 1026.1 hPa Calm     90% 0.0 mm 18 W/m2
08:02 9.2 °C 7.6 °C 1026.1 hPa Calm     90% 0.0 mm 18 W/m2
08:07 9.3 °C 7.7 °C 1026.1 hPa Calm     90% 0.0 mm 19 W/m2
08:12 9.5 °C 7.9 °C 1026.1 hPa Calm   1.6 km/h 90% 0.0 mm 21 W/m2
08:17 9.8 °C 8.1 °C 1026.1 hPa Calm   1.6 km/h 89% 0.0 mm 30 W/m2
08:22 10 °C 8.3 °C 1026.1 hPa NE 1.4 km/h 3.2 km/h 89% 0.0 mm 65 W/m2
08:27 10.3 °C 8.2 °C 1026.1 hPa NE 3.2 km/h 3.2 km/h 87% 0.0 mm 65 W/m2
08:32 10.7 °C 8.5 °C 1026.1 hPa NE 1.4 km/h 3.2 km/h 86% 0.0 mm 118 W/m2
08:37 11 °C 8.6 °C 1026.1 hPa NE 3.2 km/h 3.2 km/h 85% 0.0 mm 156 W/m2
08:42 11.3 °C 8.7 °C 1026.1 hPa NE 3.2 km/h 3.2 km/h 84% 0.0 mm 171 W/m2
08:47 11.5 °C 8.7 °C 1026.1 hPa ENE 3.2 km/h 4.8 km/h 83% 0.0 mm 190 W/m2
08:52 11.7 °C 8.7 °C 1026.1 hPa East 3.2 km/h 3.2 km/h 82% 0.0 mm 209 W/m2
08:57 11.9 °C 8.9 °C 1026.4 hPa East 1.4 km/h 1.6 km/h 82% 0.0 mm 178 W/m2
09:02 12.1 °C 9.1 °C 1026.4 hPa NE 1.4 km/h 4.8 km/h 82% 0.0 mm 28 W/m2
09:07 12.3 °C 8.9 °C 1026.4 hPa ENE 1.4 km/h 4.8 km/h 80% 0.0 mm 81 W/m2
09:12 12.5 °C 9.1 °C 1026.4 hPa NE 3.2 km/h 3.2 km/h 80% 0.0 mm 262 W/m2
09:17 12.7 °C 9.3 °C 1026.8 hPa NE 1.4 km/h 3.2 km/h 80% 0.0 mm 260 W/m2
09:22 12.9 °C 9.3 °C 1026.8 hPa NE 1.4 km/h 3.2 km/h 79% 0.0 mm 153 W/m2
09:27 13.2 °C 9.4 °C 1026.4 hPa NE 3.2 km/h 3.2 km/h 78% 0.0 mm 32 W/m2
09:32 13.6 °C 9.6 °C 1026.8 hPa East 3.2 km/h 4.8 km/h 77% 0.0 mm 33 W/m2
09:37 14.1 °C 9.7 °C 1026.8 hPa East 3.2 km/h 3.2 km/h 75% 0.0 mm 33 W/m2
09:42 14.5 °C 9.9 °C 1026.8 hPa ENE 3.2 km/h 4.8 km/h 74% 0.0 mm 33 W/m2
09:47 14.8 °C 9.8 °C 1026.8 hPa ENE 1.4 km/h 6.4 km/h 72% 0.0 mm 33 W/m2
09:52 14.9 °C 10.1 °C 1026.8 hPa ENE 1.4 km/h 3.2 km/h 73% 0.0 mm 33 W/m2
09:57 15.1 °C 10.1 °C 1026.8 hPa NE 4.7 km/h 4.8 km/h 72% 0.0 mm 33 W/m2
10:02 15.3 °C 10.3 °C 1026.8 hPa NNE 1.4 km/h 4.8 km/h 72% 0.0 mm 33 W/m2
10:07 15.7 °C 10.5 °C 1026.8 hPa Calm   1.6 km/h 71% 0.0 mm 33 W/m2
10:12 15.9 °C 10.4 °C 1026.8 hPa ENE 3.2 km/h 6.4 km/h 70% 0.0 mm 33 W/m2
10:17 16.2 °C 10.7 °C 1026.8 hPa NE 3.2 km/h 4.8 km/h 70% 0.0 mm 33 W/m2
10:22 16.4 °C 10.7 °C 1026.8 hPa East 1.4 km/h 3.2 km/h 69% 0.0 mm 35 W/m2
10:27 16.8 °C 10.9 °C 1026.8 hPa NE 3.2 km/h 3.2 km/h 68% 0.0 mm 35 W/m2
10:32 17.1 °C 10.9 °C 1026.8 hPa ENE 3.2 km/h 6.4 km/h 67% 0.0 mm 35 W/m2
10:38 17.4 °C 11 °C 1026.8 hPa Calm   6.4 km/h 66% 0.0 mm 35 W/m2
10:43 17.7 °C 11 °C 1026.8 hPa NE 3.2 km/h 6.4 km/h 65% 0.0 mm 35 W/m2
10:48 18 °C 11.1 °C 1026.8 hPa ESE 4.7 km/h 9.7 km/h 64% 0.0 mm 37 W/m2
10:53 18.3 °C 11.4 °C 1026.8 hPa Calm   3.2 km/h 64% 0.0 mm 37 W/m2
10:58 18.7 °C 11.3 °C 1026.8 hPa ESE 4.7 km/h 6.4 km/h 62% 0.0 mm 40 W/m2
11:03 18.9 °C 11.2 °C 1026.8 hPa ENE 3.2 km/h 4.8 km/h 61% 0.0 mm 42 W/m2
11:08 19.2 °C 11.2 °C 1026.8 hPa East 3.2 km/h 4.8 km/h 60% 0.0 mm 42 W/m2
11:13 19.4 °C 11.2 °C 1026.8 hPa NNE 3.2 km/h 4.8 km/h 59% 0.0 mm 44 W/m2
11:18 19.6 °C 11.4 °C 1026.8 hPa Calm   1.6 km/h 59% 0.0 mm 46 W/m2
11:23 19.9 °C 11.1 °C 1026.8 hPa East 1.4 km/h 6.4 km/h 57% 0.0 mm 46 W/m2
11:28 20.2 °C 11.1 °C 1026.8 hPa NE 3.2 km/h 8 km/h 56% 0.0 mm 47 W/m2
11:33 20.4 °C 11.1 °C 1026.8 hPa NNE 4.7 km/h 4.8 km/h 55% 0.0 mm 76 W/m2
11:38 20.7 °C 10.8 °C 1026.8 hPa ENE 3.2 km/h 6.4 km/h 53% 0.0 mm 480 W/m2
11:43 20.8 °C 10.9 °C 1026.8 hPa NE 7.9 km/h 8 km/h 53% 0.0 mm 599 W/m2
11:48 21.1 °C 10.9 °C 1026.8 hPa NE 7.9 km/h 9.7 km/h 52% 0.0 mm 606 W/m2
11:53 21.2 °C 11 °C 1026.8 hPa NE 6.4 km/h 6.4 km/h 52% 0.0 mm 619 W/m2
11:58 21.5 °C 11.2 °C 1026.8 hPa North 3.2 km/h 6.4 km/h 52% 0.0 mm 629 W/m2
12:03 21.8 °C 10.9 °C 1026.8 hPa ESE 1.4 km/h 6.4 km/h 50% 0.0 mm 636 W/m2
12:08 22.2 °C 11 °C 1026.4 hPa Calm   6.4 km/h 49% 0.0 mm 649 W/m2
12:13 22.4 °C 10.8 °C 1026.4 hPa WNW 3.2 km/h 3.2 km/h 48% 0.0 mm 654 W/m2
12:19 22.6 °C 10.7 °C 1026.4 hPa West 6.4 km/h 6.4 km/h 47% 0.0 mm 661 W/m2
12:24 22.2 °C 10.4 °C 1026.4 hPa West 6.4 km/h 11.3 km/h 47% 0.0 mm 671 W/m2
12:29 22.2 °C 10.4 °C 1026.4 hPa NNW 7.9 km/h 16.1 km/h 47% 0.0 mm 679 W/m2
12:34 22.3 °C 9.8 °C 1026.4 hPa West 9.7 km/h 11.3 km/h 45% 0.0 mm 682 W/m2
12:39 22.6 °C 9.7 °C 1026.4 hPa NW 3.2 km/h 11.3 km/h 44% 0.0 mm 687 W/m2
12:44 22.7 °C 9.8 °C 1026.4 hPa West 6.4 km/h 11.3 km/h 44% 0.0 mm 691 W/m2
12:49 22.7 °C 9.5 °C 1026.1 hPa SE 7.9 km/h 8 km/h 43% 0.0 mm 698 W/m2
12:54 22.7 °C 9.5 °C 1026.1 hPa NW 1.4 km/h 9.7 km/h 43% 0.0 mm 701 W/m2
12:59 22.8 °C 9.6 °C 1026.1 hPa WNW 4.7 km/h 9.7 km/h 43% 0.0 mm 703 W/m2
13:04 22.9 °C 9.7 °C 1026.1 hPa East 3.2 km/h 3.2 km/h 43% 0.0 mm 708 W/m2
13:09 23.1 °C 9.5 °C 1026.1 hPa SSW 4.7 km/h 11.3 km/h 42% 0.0 mm 714 W/m2
13:14 23.1 °C 9.1 °C 1025.7 hPa NNW 1.4 km/h 3.2 km/h 41% 0.0 mm 712 W/m2
13:19 23.3 °C 9.7 °C 1025.7 hPa SW 3.2 km/h 6.4 km/h 42% 0.0 mm 717 W/m2
13:24 23.4 °C 9.8 °C 1026.1 hPa West 3.2 km/h 3.2 km/h 42% 0.0 mm 715 W/m2
13:29 23.5 °C 9.5 °C 1025.7 hPa WNW 4.7 km/h 6.4 km/h 41% 0.0 mm 717 W/m2
13:34 23.6 °C 9.6 °C 1025.7 hPa NW 3.2 km/h 6.4 km/h 41% 0.0 mm 717 W/m2
13:39 23.6 °C 9.6 °C 1025.7 hPa NW 7.9 km/h 11.3 km/h 41% 0.0 mm 719 W/m2
13:44 23.6 °C 9.2 °C 1025.7 hPa NNW 4.7 km/h 6.4 km/h 40% 0.0 mm 719 W/m2
13:49 23.6 °C 9.2 °C 1025.7 hPa Calm   3.2 km/h 40% 0.0 mm 717 W/m2
13:54 23.7 °C 9.3 °C 1025.7 hPa WNW 6.4 km/h 16.1 km/h 40% 0.0 mm 717 W/m2
13:59 23.7 °C 9.3 °C 1025.7 hPa Calm   3.2 km/h 40% 0.0 mm 717 W/m2
14:04 23.9 °C 9.8 °C 1025.4 hPa NW 7.9 km/h 8 km/h 41% 0.0 mm 715 W/m2
14:09 23.9 °C 9.1 °C 1025.4 hPa NW 4.7 km/h 6.4 km/h 39% 0.0 mm 717 W/m2
14:14 24.1 °C 9.3 °C 1025.4 hPa Calm   3.2 km/h 39% 0.0 mm 715 W/m2
14:19 24.3 °C 9.1 °C 1025.4 hPa NW 1.4 km/h 11.3 km/h 38% 0.0 mm 714 W/m2
14:24 24.4 °C 9.2 °C 1025.4 hPa Calm   8 km/h 38% 0.0 mm 710 W/m2
14:29 24.3 °C 9.1 °C 1025.4 hPa Calm   4.8 km/h 38% 0.0 mm 710 W/m2
14:34 24.4 °C 9.5 °C 1025.4 hPa West 3.2 km/h 4.8 km/h 39% 0.0 mm 708 W/m2
14:39 24.8 °C 9.1 °C 1025.1 hPa NNW 4.7 km/h 4.8 km/h 37% 0.0 mm 698 W/m2
14:44 24.9 °C 8.8 °C 1025.1 hPa NW 3.2 km/h 4.8 km/h 36% 0.0 mm 696 W/m2
14:49 25 °C 8.9 °C 1025.1 hPa West 4.7 km/h 4.8 km/h 36% 0.0 mm 691 W/m2
14:54 24.9 °C 8.8 °C 1025.1 hPa West 6.4 km/h 6.4 km/h 36% 0.0 mm 687 W/m2
14:59 24.7 °C 9 °C 1025.1 hPa WNW 4.7 km/h 6.4 km/h 37% 0.0 mm 680 W/m2
15:04 24.8 °C 8.7 °C 1025.1 hPa North 1.4 km/h 6.4 km/h 36% 0.0 mm 673 W/m2
15:09 24.9 °C 9.2 °C 1025.1 hPa East 6.4 km/h 6.4 km/h 37% 0.0 mm 670 W/m2
15:14 25.2 °C 9.1 °C 1025.1 hPa West 1.4 km/h 6.4 km/h 36% 0.0 mm 666 W/m2
15:19 25.3 °C 8.7 °C 1025.1 hPa WNW 3.2 km/h 11.3 km/h 35% 0.0 mm 661 W/m2
15:24 25.1 °C 8.6 °C 1025.1 hPa NW 4.7 km/h 14.5 km/h 35% 0.0 mm 652 W/m2
15:29 25 °C 8.9 °C 1025.1 hPa West 6.4 km/h 11.3 km/h 36% 0.0 mm 642 W/m2
15:34 25.1 °C 9 °C 1025.1 hPa NNW 3.2 km/h 14.5 km/h 36% 0.0 mm 635 W/m2
15:39 25.2 °C 9.1 °C 1025.1 hPa WNW 1.4 km/h 3.2 km/h 36% 0.0 mm 628 W/m2
15:44 25.4 °C 9.2 °C 1025.1 hPa West 6.4 km/h 9.7 km/h 36% 0.0 mm 622 W/m2
15:49 25.6 °C 9.4 °C 1024.7 hPa NW 1.4 km/h 4.8 km/h 36% 0.0 mm 612 W/m2
15:54 25.9 °C 9.7 °C 1024.7 hPa NW 6.4 km/h 9.7 km/h 36% 0.0 mm 605 W/m2
15:59 25.8 °C 9.2 °C 1024.7 hPa North 1.4 km/h 11.3 km/h 35% 0.0 mm 598 W/m2
16:04 25.8 °C 9.2 °C 1024.7 hPa Calm   6.4 km/h 35% 0.0 mm 587 W/m2
16:09 25.9 °C 9.3 °C 1024.7 hPa West 1.4 km/h 1.6 km/h 35% 0.0 mm 578 W/m2
16:14 26.1 °C 9.4 °C 1024.7 hPa West 3.2 km/h 11.3 km/h 35% 0.0 mm 571 W/m2
16:19 26.1 °C 9.4 °C 1024.7 hPa WSW 7.9 km/h 11.3 km/h 35% 0.0 mm 563 W/m2
16:24 25.9 °C 8.8 °C 1024.4 hPa NNW 4.7 km/h 12.9 km/h 34% 0.0 mm 550 W/m2
16:30 25.9 °C 8.8 °C 1024.4 hPa West 3.2 km/h 9.7 km/h 34% 0.0 mm 550 W/m2
16:35 26.1 °C 8.6 °C 1024.4 hPa Calm   12.9 km/h 33% 0.0 mm 538 W/m2
16:40 26.3 °C 9.6 °C 1024.4 hPa NNE 1.4 km/h 3.2 km/h 35% 0.0 mm 527 W/m2
16:45 26.6 °C 9 °C 1024.4 hPa WNW 3.2 km/h 12.9 km/h 33% 0.0 mm 519 W/m2
16:50 26.5 °C 8.5 °C 1024.4 hPa Calm   4.8 km/h 32% 0.0 mm 508 W/m2
16:55 26.4 °C 8.8 °C 1024.4 hPa SW 3.2 km/h 12.9 km/h 33% 0.0 mm 497 W/m2
17:00 26.6 °C 9.4 °C 1024.4 hPa WNW 4.7 km/h 8 km/h 34% 0.0 mm 483 W/m2
17:05 26.5 °C 8.9 °C 1024.4 hPa NNW 3.2 km/h 11.3 km/h 33% 0.0 mm 471 W/m2
17:10 26.3 °C 8.7 °C 1024.0 hPa NW 4.7 km/h 4.8 km/h 33% 0.0 mm 459 W/m2
17:15 26.3 °C 8.7 °C 1024.0 hPa NNW 4.7 km/h 9.7 km/h 33% 0.0 mm 448 W/m2
17:20 26.3 °C 8.7 °C 1024.0 hPa NNW 3.2 km/h 3.2 km/h 33% 0.0 mm 432 W/m2
17:25 26.4 °C 9.3 °C 1024.0 hPa Calm   3.2 km/h 34% 0.0 mm 420 W/m2
17:30 26.8 °C 10.1 °C 1024.0 hPa Calm   3.2 km/h 35% 0.0 mm 411 W/m2
17:35 27.1 °C 9.4 °C 1024.0 hPa West 4.7 km/h 6.4 km/h 33% 0.0 mm 394 W/m2
17:40 27 °C 9.4 °C 1024.0 hPa SSE 1.4 km/h 8 km/h 33% 0.0 mm 378 W/m2
17:45 26.9 °C 9.3 °C 1024.0 hPa WSW 1.4 km/h 4.8 km/h 33% 0.0 mm 364 W/m2
17:50 27.1 °C 9.4 °C 1024.0 hPa West 3.2 km/h 8 km/h 33% 0.0 mm 352 W/m2
17:55 27.1 °C 9.4 °C 1024.0 hPa NW 4.7 km/h 9.7 km/h 33% 0.0 mm 339 W/m2
18:00 26.7 °C 9.5 °C 1024.0 hPa WNW 1.4 km/h 11.3 km/h 34% 0.0 mm 325 W/m2
18:05 26.6 °C 9.4 °C 1024.0 hPa NW 3.2 km/h 6.4 km/h 34% 0.0 mm 309 W/m2
18:10 26.7 °C 9.5 °C 1024.0 hPa WNW 9.7 km/h 11.3 km/h 34% 0.0 mm 294 W/m2
18:15 26.6 °C 9.9 °C 1023.7 hPa West 3.2 km/h 3.2 km/h 35% 0.0 mm 279 W/m2
18:20 26.7 °C 9.5 °C 1023.7 hPa NNW 11.3 km/h 11.3 km/h 34% 0.0 mm 262 W/m2
18:25 26.8 °C 10.1 °C 1023.7 hPa West 3.2 km/h 3.2 km/h 35% 0.0 mm 248 W/m2
18:30 26.8 °C 10.5 °C 1023.7 hPa West 1.4 km/h 4.8 km/h 36% 0.0 mm 232 W/m2
18:35 26.8 °C 10.1 °C 1023.7 hPa West 1.4 km/h 3.2 km/h 35% 0.0 mm 218 W/m2
18:40 26.9 °C 10.6 °C 1023.7 hPa Calm   1.6 km/h 36% 0.0 mm 204 W/m2
18:45 26.8 °C 10.5 °C 1023.7 hPa Calm   4.8 km/h 36% 0.0 mm 190 W/m2
18:50 26.7 °C 10.4 °C 1023.7 hPa NNW 1.4 km/h 4.8 km/h 36% 0.0 mm 174 W/m2
18:55 26.3 °C 10.4 °C 1023.7 hPa West 3.2 km/h 4.8 km/h 37% 0.0 mm 158 W/m2
19:00 26.1 °C 10.7 °C 1023.7 hPa Calm   1.6 km/h 38% 0.0 mm 142 W/m2
19:05 26 °C 10.6 °C 1023.7 hPa WSW 3.2 km/h 3.2 km/h 38% 0.0 mm 127 W/m2
19:10 25.9 °C 10.9 °C 1023.7 hPa WSW 1.4 km/h 3.2 km/h 39% 0.0 mm 107 W/m2
19:15 25.7 °C 11.1 °C 1023.7 hPa WSW 1.4 km/h 3.2 km/h 40% 0.0 mm 42 W/m2
19:20 25.4 °C 11.6 °C 1023.7 hPa Calm     42% 0.0 mm 19 W/m2
19:25 24.9 °C 11.5 °C 1023.7 hPa WSW 1.4 km/h 3.2 km/h 43% 0.0 mm 18 W/m2
19:30 24.3 °C 11.3 °C 1023.7 hPa Calm   1.6 km/h 44% 0.0 mm 16 W/m2
19:35 23.8 °C 10.8 °C 1023.7 hPa WSW 3.2 km/h 3.2 km/h 44% 0.0 mm 14 W/m2
19:40 23.4 °C 10.8 °C 1023.7 hPa WSW 1.4 km/h 1.6 km/h 45% 0.0 mm 12 W/m2
19:45 23.1 °C 10.8 °C 1023.7 hPa WSW 1.4 km/h 3.2 km/h 46% 0.0 mm 11 W/m2
19:50 22.8 °C 10.6 °C 1023.7 hPa WSW 1.4 km/h 4.8 km/h 46% 0.0 mm 9 W/m2
19:56 22.4 °C 10.5 °C 1023.7 hPa Calm   3.2 km/h 47% 0.0 mm 7 W/m2
20:01 22.2 °C 10.4 °C 1023.7 hPa West 4.7 km/h 4.8 km/h 47% 0.0 mm 5 W/m2
20:06 22 °C 10.5 °C 1024.0 hPa WSW 1.4 km/h 3.2 km/h 48% 0.0 mm 0 W/m2
20:11 21.8 °C 10.6 °C 1024.0 hPa WNW 1.4 km/h 3.2 km/h 49% 0.0 mm 0 W/m2
20:16 21.6 °C 10.4 °C 1024.0 hPa WSW 3.2 km/h 3.2 km/h 49% 0.0 mm 0 W/m2
20:21 21.4 °C 10.5 °C 1024.0 hPa Calm   3.2 km/h 50% 0.0 mm 0 W/m2
20:26 21.2 °C 10.7 °C 1024.0 hPa Calm   1.6 km/h 51% 0.0 mm 0 W/m2
20:31 21.1 °C 10.6 °C 1024.0 hPa Calm   1.6 km/h 51% 0.0 mm 0 W/m2
20:36 20.8 °C 10.9 °C 1024.0 hPa Calm     53% 0.0 mm 0 W/m2
20:41 20.6 °C 11 °C 1024.0 hPa Calm     54% 0.0 mm 0 W/m2
20:46 20.3 °C 10.7 °C 1024.0 hPa Calm     54% 0.0 mm 0 W/m2
20:51 20.2 °C 11.1 °C 1024.0 hPa Calm     56% 0.0 mm 0 W/m2
20:56 19.9 °C 10.9 °C 1024.4 hPa Calm     56% 0.0 mm 0 W/m2
21:01 19.7 °C 10.9 °C 1024.4 hPa Calm     57% 0.0 mm 0 W/m2
21:06 19.5 °C 11 °C 1024.4 hPa Calm     58% 0.0 mm 0 W/m2
21:11 19.3 °C 11.1 °C 1024.4 hPa Calm     59% 0.0 mm 0 W/m2
21:16 19.1 °C 11.2 °C 1024.4 hPa Calm     60% 0.0 mm 0 W/m2
21:21 18.9 °C 11.2 °C 1024.4 hPa Calm     61% 0.0 mm 0 W/m2
21:26 18.8 °C 11.1 °C 1024.4 hPa Calm     61% 0.0 mm 0 W/m2
21:31 18.7 °C 11.3 °C 1024.4 hPa Calm     62% 0.0 mm 0 W/m2
21:36 18.6 °C 11.2 °C 1024.4 hPa Calm     62% 0.0 mm 0 W/m2
21:41 18.4 °C 11.2 °C 1024.4 hPa Calm     63% 0.0 mm 0 W/m2
21:47 18.3 °C 11.1 °C 1024.4 hPa Calm     63% 0.0 mm 0 W/m2
21:52 18.2 °C 11.3 °C 1024.4 hPa Calm     64% 0.0 mm 0 W/m2
21:57 18 °C 11.3 °C 1024.4 hPa Calm     65% 0.0 mm 0 W/m2
22:02 17.9 °C 11.2 °C 1024.4 hPa Calm     65% 0.0 mm 0 W/m2
22:07 17.8 °C 11.4 °C 1024.4 hPa Calm     66% 0.0 mm 0 W/m2
22:12 17.7 °C 11.5 °C 1024.4 hPa Calm     67% 0.0 mm 0 W/m2
22:17 17.6 °C 11.4 °C 1024.4 hPa Calm     67% 0.0 mm 0 W/m2
22:22 17.4 °C 11.2 °C 1024.4 hPa Calm     67% 0.0 mm 0 W/m2
22:27 17.3 °C 11.3 °C 1024.4 hPa Calm     68% 0.0 mm 0 W/m2
22:32 17.2 °C 11.5 °C 1024.4 hPa Calm     69% 0.0 mm 0 W/m2
22:37 17.1 °C 11.6 °C 1024.4 hPa Calm     70% 0.0 mm 0 W/m2
22:42 16.9 °C 11.4 °C 1024.4 hPa Calm     70% 0.0 mm 0 W/m2
22:47 16.8 °C 11.5 °C 1024.4 hPa Calm     71% 0.0 mm 0 W/m2
22:52 16.8 °C 11.5 °C 1024.4 hPa Calm     71% 0.0 mm 0 W/m2
22:57 16.7 °C 11.6 °C 1024.4 hPa Calm     72% 0.0 mm 0 W/m2
23:02 16.7 °C 11.6 °C 1024.4 hPa Calm     72% 0.0 mm 0 W/m2
23:07 16.7 °C 11.8 °C 1024.4 hPa Calm     73% 0.0 mm 0 W/m2
23:12 16.6 °C 11.5 °C 1024.4 hPa Calm     72% 0.0 mm 0 W/m2
23:17 16.6 °C 11.5 °C 1024.4 hPa Calm     72% 0.0 mm 0 W/m2
23:22 16.4 °C 11.3 °C 1024.4 hPa Calm     72% 0.0 mm 0 W/m2
23:27 16.4 °C 11.5 °C 1024.4 hPa Calm     73% 0.0 mm 0 W/m2
23:32 16.4 °C 11.5 °C 1024.4 hPa Calm     73% 0.0 mm 0 W/m2
23:38 16.3 °C 11.7 °C 1024.0 hPa Calm     74% 0.0 mm 0 W/m2
23:43 16.3 °C 11.7 °C 1024.0 hPa Calm     74% 0.0 mm 0 W/m2
23:48 16.2 °C 11.8 °C 1024.4 hPa Calm     75% 0.0 mm 0 W/m2
23:53 16.2 °C 11.8 °C 1024.4 hPa Calm     75% 0.0 mm 0 W/m2
23:58 16.1 °C 11.7 °C 1024.4 hPa Calm     75% 0.0 mm 0 W/m2
Juneau County Weather
Compliments of Weather Underground - 4 mb